This demonstration page uses our WeatherBlox Daily Observations layout. Learn more.

Left ArrowRight Arrow

Hourly Observations for September 14, 2019

Temp ( °F °C ) Dew Point ( °F °C ) Humidity (%) Winds ( mph kmh ) Pressure ( in mb ) Visibility ( mi km ) Precip ( " mm )
12:53 am 00:53 Clear 67 19.4 54 12.2 63 63 S 10 17 30.09 1019 10 16 0.00 0.00
1:53 am 01:53 Partly Cloudy 66 18.9 55 12.8 68 68 S 9 15 30.10 1019 10 16 0.00 0.00
2:53 am 02:53 Partly Cloudy 66 18.9 56 13.3 70 70 S 9 15 30.09 1019 10 16 0.00 0.00
3:53 am 03:53 Clear 65 18.3 58 14.4 78 78 S 9 15 30.07 1018 10 16 0.00 0.00
4:53 am 04:53 Mostly Clear 65 18.3 60 15.6 84 84 S 8 13 30.06 1018 10 16 0.00 0.00
5:53 am 05:53 Clear 64 17.8 60 15.6 87 87 S 9 15 30.05 1018 10 16 0.00 0.00
6:53 am 06:53 Partly Cloudy 64 17.8 61 16.1 90 90 S 9 15 30.04 1017 10 16 0.00 0.00
7:31 am 07:31 Mostly Cloudy 64 17.8 61 16.1 90 90 S 8 13 30.03 1017 9 14 0.00 0.00
7:51 am 07:51 Cloudy 64 18 63 17 94 94 S 7 11 30.04 1017 8 13 0.00 0.00
7:53 am 07:53 Cloudy 65 18.3 62 16.7 90 90 S 7 11 30.05 1018 8 13 0.00 0.00
8:53 am 08:53 Cloudy 68 20 64 17.8 87 87 SSW 10 17 30.05 1018 7 11 0.00 0.00
9:53 am 09:53 Cloudy 71 21.7 66 18.9 84 84 SSW 15 24 30.04 1017 10 16 0.00 0.00
10:09 am 10:09 Partly Cloudy 73 22.8 66 18.9 79 79 SSW 10 17 30.00 1016 10 16 0.00 0.00
10:53 am 10:53 Partly Cloudy 75 23.9 66 18.9 74 74 SSW 16 26 30.03 1017 10 16 0.00 0.00
11:53 am 11:53 Partly Cloudy 78 25.6 66 18.9 67 67 SSW 14 22 30.01 1016 10 16 0.00 0.00
12:09 pm 12:09 Mostly Cloudy 79 26.1 66 18.9 65 65 SSW 14 22 29.94 1014 10 16 0.00 0.00
12:39 pm 12:39 Partly Cloudy 81 27 66 19 62 62 SW 12 19 29.93 1013 10 16 0.00 0.00
12:53 pm 12:53 Mostly Sunny 81 27.2 67 19.4 62 62 SW 15 24 29.99 1016 10 16 0.00 0.00
1:53 pm 13:53 Mostly Sunny 83 28.3 67 19.4 59 59 SSW 14 22 29.97 1015 10 16 0.00 0.00
2:53 pm 14:53 Partly Cloudy 85 29.4 67 19.4 55 55 SW 10 17 29.95 1014 10 16 0.00 0.00
3:53 pm 15:53 Sunny 88 31.1 67 19.4 50 50 SW 8 13 29.93 1013 10 16 0.00 0.00
4:53 pm 16:53 Sunny 88 31.1 68 20 52 52 WSW 7 11 29.92 1013 10 16 0.00 0.00
5:53 pm 17:53 Sunny 87 30.6 68 20 53 53 SW 5 7 29.92 1013 10 16 0.00 0.00
6:53 pm 18:53 Sunny 86 30 68 20 55 55 WSW 5 7 29.92 1013 10 16 0.00 0.00
7:53 pm 19:53 Clear 81 27.2 69 20.6 67 67 Calm 29.93 1013 10 16 0.00 0.00
8:53 pm 20:53 Clear 75 23.9 68 20 79 79 W 3 6 29.94 1014 10 16 0.00 0.00
9:53 pm 21:53 Clear 74 23.3 68 20 82 82 Calm 29.95 1014 10 16 0.00 0.00
10:53 pm 22:53 Clear 72 22.2 67 19.4 84 84 Calm 29.95 1014 10 16 0.00 0.00
11:53 pm 23:53 Clear 71 21.7 67 19.4 87 87 SSW 5 7 29.95 1014 10 16 0.00 0.00

Powered by AerisWeather